Flag for Germany Weather past 2 weeks in Nuremberg, Bavaria, Germany

Now
36 °F

Passing clouds.


Feels Like: 27 °F
Forecast: 32 / 40 °F
Wind: 13 mph from West

Location: Nuernberg

Current Time: Apr 1, 2015 at 11:25:53 PM

Latest Report: Apr 1, 2015 at 10:50 PM


Visibility: N/A

Pressure: 30.09 "Hg

Humidity: 87%

Dew point: 32 °F

Location of NurembergLocation

Historic Weather in Nuremberg — Graph

°F

Nuremberg temperature yesterday

Maximum temperature yesterday: 55 °F (at 10:20 AM)
Minimum temperature yesterday: 37 °F (at 12:50 AM)
Average temperature yesterday: 46 °F

Past Weeks' High & Low Weather Summary

 TemperatureHumidityPressure
High64 °F (Mar 25, 12:20 PM)100% (Mar 24, 5:20 AM)30.27 "Hg (Mar 24, 5:20 AM)
Low27 °F (Mar 21, 2:20 AM)21% (Mar 20, 4:20 PM)29.42 "Hg (Mar 29, 11:50 PM)
Average44 °F70%29.93 "Hg
* Reported Mar 17 9:20 PM — Apr 1 10:20 PM, Nuremberg, Weather by CustomWeather, © 2015

Note: Actual official high and low records may vary slightly from our data, if they occured in-between our weather recording intervals... More about our weather records

Advertising

Nuremberg weather history for previous 24 hours

 ConditionsComfort  
Time TempWeatherWind HumidityBarometerVisibility
10:20 PM
Wed, Apr 1
36 °FSnow flurries. Passing clouds.20 mph87%30.09 "HgN/A
9:50 PM34 °FSnow flurries. Partly cloudy.7 mph93%30.09 "Hg4 mi
9:20 PM34 °FPassing clouds.12 mph93%30.07 "HgN/A
8:50 PM34 °FSprinkles. Passing clouds.15 mph93%30.09 "Hg4 mi
8:20 PM37 °FSprinkles. Broken clouds.8 mph81%30.07 "HgN/A
7:50 PM37 °FScattered clouds.12 mph87%30.07 "HgN/A
7:20 PM37 °FScattered clouds.17 mph81%30.04 "HgN/A
6:50 PM36 °FSprinkles. Broken clouds.15 mph93%30.04 "HgN/A
6:20 PM37 °FSprinkles. Scattered clouds.18 mph87%30.04 "HgN/A
5:50 PM36 °FScattered clouds.20 mph93%30.04 "HgN/A
5:20 PM37 °FScattered clouds.13 mph87%30.04 "HgN/A
4:50 PM39 °FScattered clouds.10 mph75%30.04 "HgN/A
4:20 PM43 °FScattered clouds.24 mph66%30.01 "HgN/A
3:50 PM45 °FSprinkles. Scattered clouds.9 mph66%30.01 "HgN/A
3:20 PM37 °FSprinkles. Scattered clouds.14 mph87%30.01 "HgN/A
2:50 PM43 °FSprinkles. Scattered clouds.24 mph61%30.01 "HgN/A
2:20 PM45 °FScattered clouds.18 mph61%30.01 "HgN/A
1:50 PM43 °FSprinkles. Broken clouds.23 mph61%30.01 "HgN/A
1:20 PM43 °FBroken clouds.24 mph61%30.01 "HgN/A
12:50 PM41 °FSprinkles. Broken clouds.26 mph66%30.01 "HgN/A
12:20 PM39 °FSprinkles. Broken clouds.29 mph70%30.01 "HgN/A
11:50 AM41 °FBroken clouds.22 mph66%30.01 "HgN/A
11:20 AM39 °FSnow flurries. Broken clouds.20 mph70%29.98 "HgN/A
10:50 AM39 °FBroken clouds.20 mph70%29.98 "HgN/A
10:20 AM39 °FSprinkles. Broken clouds.18 mph70%29.95 "HgN/A
9:50 AM39 °FBroken clouds.18 mph70%29.95 "HgN/A
9:20 AM39 °FSprinkles. Broken clouds.17 mph70%29.92 "HgN/A
8:50 AM37 °FScattered clouds.20 mph75%29.92 "HgN/A
8:20 AM36 °FScattered clouds.18 mph81%29.92 "HgN/A
7:50 AM34 °FPassing clouds.9 mph100%29.89 "HgN/A
7:20 AM34 °FChilly.24 mph93%29.89 "HgN/A
6:50 AM37 °FPartly cloudy.15 mph81%29.86 "HgN/A
6:20 AM37 °FPartly cloudy.21 mph81%29.86 "HgN/A
5:50 AM37 °FPartly cloudy.10 mph87%29.86 "HgN/A
5:20 AM34 °FSnow flurries. Passing clouds.14 mph93%29.86 "Hg3 mi
4:50 AM37 °FLight rain. Partly cloudy.18 mph81%29.86 "HgN/A
4:20 AM37 °FPartly cloudy.17 mph81%29.83 "HgN/A
3:50 AM37 °FPartly cloudy.21 mph81%29.83 "HgN/A
3:20 AM37 °FPartly cloudy.23 mph81%29.83 "HgN/A
2:50 AM39 °FPartly cloudy.21 mph75%29.83 "HgN/A
2:20 AM39 °FPassing clouds.17 mph81%29.80 "HgN/A
1:50 AM37 °FPartly cloudy.16 mph87%29.80 "HgN/A
1:20 AM37 °FPassing clouds.14 mph87%29.80 "HgN/A
12:50 AM36 °FPartly cloudy.17 mph93%29.80 "HgN/A
12:20 AM36 °FSprinkles. Passing clouds.18 mph93%29.80 "HgN/A
11:50 PM
Tue, Mar 31
43 °FThunderstorms. Partly cloudy.26 mph71%29.77 "HgN/A
11:20 PM43 °FPassing clouds.18 mph76%29.74 "HgN/A
Weather by CustomWeather, © 2015

See weather overviewHow to use our weather pages